| time (UTC) | temp F | wind direction | speed MPH | gust MPH | rain 1hr in | rain 24hr in | rain mn in | humidity % | barometer mb |
| 20260502232901 | 48 | 220 | 3.0 | 7.0 | 0.00 | 0.00 | 0.00 | 43 | 1015.9 |
| 20260502225901 | 48 | 328 | 2.0 | 6.0 | 0.00 | 0.00 | 0.00 | 42 | 1015.9 |
| 20260502224401 | 49 | 227 | 3.0 | 8.0 | 0.00 | 0.00 | 0.00 | 41 | 1015.9 |
| 20260502221402 | 48 | 319 | 6.0 | 8.0 | 0.00 | 0.00 | 0.00 | 41 | 1015.9 |
| 20260502215902 | 48 | 329 | 5.0 | 7.0 | 0.00 | 0.00 | 0.00 | 43 | 1015.9 |
| 20260502214401 | 47 | 251 | 4.0 | 7.0 | 0.00 | 0.00 | 0.00 | 45 | 1015.9 |
| 20260502212901 | 47 | 35 | 3.0 | 8.0 | 0.00 | 0.00 | 0.00 | 45 | 1015.9 |
| 20260502211401 | 48 | 8 | 3.0 | 7.0 | 0.00 | 0.00 | 0.00 | 43 | 1016.3 |
| 20260502205901 | 49 | 311 | 5.0 | 11.0 | 0.00 | 0.00 | 0.00 | 43 | 1016.3 |
| 20260502204402 | 47 | 301 | 8.0 | 9.0 | 0.00 | 0.00 | 0.00 | 43 | 1016.3 |
| 20260502202902 | 49 | 302 | 5.0 | 9.0 | 0.00 | 0.00 | 0.00 | 41 | 1016.3 |
| 20260502201401 | 49 | 313 | 6.0 | 9.0 | 0.00 | 0.00 | 0.00 | 40 | 1016.6 |
| 20260502195902 | 48 | 318 | 4.0 | 7.0 | 0.00 | 0.00 | 0.00 | 42 | 1016.6 |
| 20260502194402 | 49 | 326 | 7.0 | 10.0 | 0.00 | 0.00 | 0.00 | 40 | 1016.9 |
| 20260502191902 | 47 | 296 | 10.0 | 11.0 | 0.00 | 0.00 | 0.00 | 41 | 1017.3 |
| 20260502190402 | 48 | 309 | 7.0 | 10.0 | 0.00 | 0.00 | 0.00 | 39 | 1017.3 |
| 20260502184901 | 51 | 0 | 6.0 | 10.0 | 0.00 | 0.00 | 0.00 | 38 | 1017.3 |
| 20260502180401 | 47 | 314 | 7.0 | 12.0 | 0.00 | 0.00 | 0.00 | 41 | 1017.6 |
| 20260502170402 | 47 | 354 | 5.0 | 8.0 | 0.00 | 0.00 | 0.00 | 41 | 1017.9 |
| 20260502161902 | 47 | 265 | 4.0 | 9.0 | 0.00 | 0.00 | 0.00 | 41 | 1018.3 |
| 20260502160401 | 44 | 270 | 7.0 | 8.0 | 0.00 | 0.00 | 0.00 | 45 | 1018.3 |
| 20260502150902 | 45 | 335 | 7.0 | 9.0 | 0.00 | 0.00 | 0.00 | 47 | 1018.3 |
| 20260502123401 | 37 | 217 | 2.0 | 4.0 | 0.00 | 0.00 | 0.00 | 74 | 1018.3 |
| 20260502121901 | 36 | 310 | 3.0 | 5.0 | 0.00 | 0.00 | 0.00 | 75 | 1017.9 |
| 20260502113901 | 33 | 286 | 2.0 | 5.0 | 0.00 | 0.00 | 0.00 | 82 | 1017.9 |
| 20260502112402 | 31 | 315 | 3.0 | 3.0 | 0.00 | 0.00 | 0.00 | 84 | 1017.9 |
| 20260502110901 | 31 | 329 | 2.0 | 3.0 | 0.00 | 0.00 | 0.00 | 84 | 1017.6 |
| 20260502105402 | 31 | 292 | 2.0 | 3.0 | 0.00 | 0.00 | 0.00 | 84 | 1017.6 |
| 20260502103902 | 31 | 266 | 2.0 | 4.0 | 0.00 | 0.00 | 0.00 | 84 | 1017.6 |
| 20260502102901 | 31 | 294 | 3.0 | 3.0 | 0.00 | 0.00 | 0.00 | 83 | 1017.6 |
| 20260502101402 | 31 | 299 | 3.0 | 4.0 | 0.00 | 0.00 | 0.00 | 82 | 1017.6 |
| 20260502091402 | 33 | 261 | 3.0 | 4.0 | 0.00 | 0.00 | 0.00 | 78 | 1017.3 |
| 20260502070901 | 36 | 303 | 3.0 | 6.0 | 0.00 | 0.00 | 0.00 | 68 | 1016.6 |
| 20260502065402 | 37 | 307 | 3.0 | 4.0 | 0.00 | 0.00 | 0.00 | 67 | 1016.9 |
| 20260502063901 | 38 | 244 | 3.0 | 6.0 | 0.00 | 0.00 | 0.00 | 67 | 1016.9 |
| 20260502062402 | 38 | 265 | 6.0 | 6.0 | 0.00 | 0.00 | 0.00 | 66 | 1016.9 |
| 20260502054402 | 39 | 241 | 3.0 | 4.0 | 0.00 | 0.00 | 0.00 | 64 | 1017.3 |
| 20260502053401 | 39 | 257 | 2.0 | 3.0 | 0.00 | 0.00 | 0.00 | 64 | 1017.3 |
| 20260502052201 | 39 | 264 | 4.0 | 4.0 | 0.00 | 0.00 | 0.00 | 64 | 1017.3 |
| 20260502050401 | 39 | 325 | 4.0 | 5.0 | 0.00 | 0.00 | 0.00 | 64 | 1017.3 |
| 20260502043401 | 40 | 23 | 4.0 | 7.0 | 0.00 | 0.00 | 0.00 | 65 | 1016.9 |
| 20260502041901 | 40 | 299 | 2.0 | 4.0 | 0.00 | 0.00 | 0.00 | 67 | 1016.6 |
| 20260502040402 | 40 | 269 | 3.0 | 6.0 | 0.00 | 0.00 | 0.00 | 68 | 1016.6 |
| 20260502035901 | 40 | 282 | 5.0 | 5.0 | 0.00 | 0.00 | 0.00 | 69 | 1016.6 |
| 20260502034402 | 39 | 297 | 3.0 | 5.0 | 0.00 | 0.00 | 0.00 | 71 | 1016.6 |
| 20260502033402 | 39 | 329 | 4.0 | 8.0 | 0.00 | 0.00 | 0.00 | 71 | 1016.3 |
| 20260502031901 | 39 | 273 | 3.0 | 4.0 | 0.00 | 0.00 | 0.00 | 72 | 1016.3 |
| 20260502024902 | 39 | 271 | 2.0 | 3.0 | 0.00 | 0.00 | 0.00 | 74 | 1016.3 |
| 20260502021902 | 39 | 235 | 2.0 | 2.0 | 0.00 | 0.00 | 0.00 | 72 | 1016.3 |
| 20260502020402 | 40 | 291 | 2.0 | 4.0 | 0.00 | 0.00 | 0.00 | 70 | 1015.9 |
| 20260502014901 | 40 | 304 | 2.0 | 3.0 | 0.00 | 0.00 | 0.00 | 69 | 1015.9 |
| 20260502013402 | 41 | 259 | 3.0 | 4.0 | 0.00 | 0.00 | 0.00 | 68 | 1015.9 |
| 20260502010402 | 41 | 305 | 5.0 | 7.0 | 0.00 | 0.00 | 0.00 | 65 | 1015.6 |
| 20260502002402 | 43 | 283 | 3.0 | 7.0 | 0.00 | 0.00 | 0.00 | 62 | 1015.2 |
| 20260502001401 | 43 | 316 | 6.0 | 10.0 | 0.00 | 0.00 | 0.00 | 63 | 1015.6 |
| 20260501235901 | 43 | 351 | 2.0 | 8.0 | 0.00 | 0.00 | 0.00 | 64 | 1015.2 |
| 20260501234402 | 44 | 348 | 4.0 | 8.0 | 0.00 | 0.00 | 0.00 | 63 | 1015.2 |